EW0844 Weather Reports


time (UTC)temp
C
wind
direction
speed
KPH
gust
KPH
rain 1hr
cm
rain 24hr
cm
rain mn
cm
humidity
%
barometer
mb
20260902184911 21 62 1.6 3.2 0.00 0.00 0.00 62 1019.9
20260902183411 21 107 0.0 3.2 0.00 0.00 0.00 60 1019.7
20260902181913 21 159 1.6 3.2 0.00 0.00 0.00 59 1019.5
20260902180411 21 45 1.6 3.2 0.00 0.00 0.00 57 1019.2
20260902174912 22 141 1.6 4.8 0.00 0.00 0.00 56 1019.1
20260902171912 22 304 3.2 6.4 0.00 0.00 0.00 54 1019.0
20260902170413 22 239 3.2 6.4 0.00 0.00 0.00 54 1018.9
20260902164913 23 313 3.2 6.4 0.00 0.00 0.00 52 1018.9
20260902163415 23 336 3.2 8.0 0.00 0.00 0.00 50 1018.7
20260902161915 23 22 3.2 8.0 0.00 0.00 0.00 50 1018.8
20260902160412 23 324 6.4 11.3 0.00 0.00 0.00 48 1018.7
20260902154912 23 278 6.4 11.3 0.00 0.00 0.00 48 1018.9
20260902151912 24 327 6.4 9.7 0.00 0.00 0.00 47 1018.9
20260902150412 24 233 4.8 11.3 0.00 0.00 0.00 46 1019.0
20260902144912 25 278 8.0 17.7 0.00 0.00 0.00 45 1019.1
20260902141912 25 359 6.4 14.5 0.00 0.00 0.00 46 1019.5
20260902134912 25 280 8.0 12.9 0.00 0.00 0.00 46 1019.6
20260902131912 24 333 3.2 12.9 0.00 0.00 0.00 47 1019.7
20260902130412 24 191 3.2 8.0 0.00 0.00 0.00 48 1019.8
20260902124912 24 108 6.4 17.7 0.00 0.00 0.00 49 1020.0
20260902123412 23 300 9.7 11.3 0.00 0.00 0.00 50 1020.0
20260902120414 23 169 1.6 9.7 0.00 0.00 0.00 50 1020.3
20260902114914 23 168 3.2 8.0 0.00 0.00 0.00 50 1020.4
20260902113413 23 257 4.8 12.9 0.00 0.00 0.00 50 1020.4
20260902104913 23 292 6.4 11.3 0.00 0.00 0.00 50 1020.7
20260902103412 23 12 3.2 11.3 0.00 0.00 0.00 53 1020.8
20260902101912 23 58 3.2 11.3 0.00 0.00 0.00 53 1021.0
20260902100414 23 359 3.2 12.9 0.00 0.00 0.00 55 1020.9
20260902094914 23 359 4.8 9.7 0.00 0.00 0.00 54 1021.0
20260902093415 22 177 3.2 9.7 0.00 0.00 0.00 56 1021.1
20260902090412 22 12 4.8 9.7 0.00 0.00 0.00 55 1021.1
20260902084913 22 112 4.8 8.0 0.00 0.00 0.00 57 1021.2
20260902083412 22 161 1.6 8.0 0.00 0.00 0.00 57 1021.3
20260902081912 21 306 3.2 6.4 0.00 0.00 0.00 56 1021.2
20260902080414 21 88 3.2 6.4 0.00 0.00 0.00 57 1021.1
20260902074913 21 313 6.4 8.0 0.00 0.00 0.00 59 1021.2
20260902073413 20 27 1.6 4.8 0.00 0.00 0.00 61 1021.1
20260902071913 20 313 3.2 8.0 0.00 0.00 0.00 62 1021.1
20260902070412 19 218 1.6 4.8 0.00 0.00 0.00 64 1021.0
20260902061912 16 134 1.6 3.2 0.00 0.00 0.00 76 1021.1
20260902060411 15 76 3.2 4.8 0.00 0.00 0.00 78 1021.2
20260902054911 14 116 1.6 6.4 0.00 0.00 0.00 83 1021.1
20260902044914 12 45 0.0 1.6 0.00 0.00 0.00 87 1020.7
20260902043414 12 197 1.6 1.6 0.00 0.00 0.00 86 1020.6
20260902041913 12 45 0.0 3.2 0.00 0.00 0.00 86 1020.6
20260902040414 12 116 0.0 3.2 0.00 0.00 0.00 86 1020.5
20260902034914 12 45 1.6 4.8 0.00 0.00 0.00 86 1020.5
20260902033414 12 88 1.6 3.2 0.00 0.00 0.00 85 1020.6
20260902030414 13 62 1.6 1.6 0.00 0.00 0.00 84 1020.7
20260902024914 13 177 0.0 3.2 0.00 0.00 0.00 84 1020.8
20260902023414 13 45 0.0 1.6 0.00 0.00 0.00 84 1020.9
20260902021913 13 1 1.6 3.2 0.00 0.00 0.00 84 1020.9
20260902020412 13 134 0.0 1.6 0.00 0.00 0.00 83 1020.9
20260902014912 13 88 1.6 1.6 0.00 0.00 0.00 82 1020.9
20260902013412 13 295 0.0 1.6 0.00 0.00 0.00 82 1020.9
20260902011913 13 360 0.0 3.2 0.00 0.00 0.00 82 1020.9
20260902004913 13 78 1.6 3.2 0.00 0.00 0.00 82 1020.9
20260902003414 13 71 1.6 3.2 0.00 0.00 0.00 82 1021.0
20260902000414 14 78 1.6 3.2 0.00 0.00 0.00 82 1021.1
20260901233411 14 81 1.6 4.8 0.00 0.00 0.00 81 1021.2
20260901231912 15 71 1.6 3.2 0.00 0.00 0.00 81 1021.2
20260901230413 15 107 1.6 3.2 0.00 0.00 0.00 80 1021.1
20260901224912 15 145 1.6 3.2 0.00 0.00 0.00 80 1021.1
20260901223411 15 166 1.6 3.2 0.00 0.00 0.00 79 1021.1
20260901221912 15 45 0.0 1.6 0.00 0.00 0.00 78 1021.1
20260901213412 16 88 0.0 1.6 0.00 0.00 0.00 77 1021.0
20260901211913 16 45 1.6 3.2 0.00 0.00 0.00 77 1020.9
20260901210413 16 76 1.6 3.2 0.00 0.00 0.00 76 1021.1
20260901204913 17 101 1.6 3.2 0.00 0.00 0.00 75 1021.0
20260901203414 17 107 1.6 3.2 0.00 0.00 0.00 74 1021.0
20260901201913 17 1 0.0 1.6 0.00 0.00 0.00 72 1020.7
20260901200412 18 116 1.6 3.2 0.00 0.00 0.00 70 1020.7
20260901194913 18 159 1.6 4.8 0.00 0.00 0.00 68 1020.4
20260901193412 19 26 1.6 4.8 0.00 0.00 0.00 65 1020.4
20260901191912 20 1 0.0 1.6 0.00 0.00 0.00 63 1020.4
20260901190412 20 359 1.6 4.8 0.00 0.00 0.00 61 1020.3